Time,TemperatureF,DewpointF,PressureIn,WindDirection,WindDirectionDegrees,WindSpeedMPH,WindSpeedGustMPH,Humidity,HourlyPrecipIn,Conditions,Clouds,dailyrainin,SoftwareType,DateUTC
2013-07-08 00:01:00,71.1,67.1,29.89,North,0,0.0,1.6,87,0.00,,,0.00,WUHU216HW,2013-07-08 05:01:00,
2013-07-08 00:06:00,71.1,67.1,29.90,NE,45,0.4,1.6,87,0.00,,,0.00,WUHU216HW,2013-07-08 05:06:00,
2013-07-08 00:11:00,70.9,66.9,29.90,WNW,293,1.1,1.6,87,0.00,,,0.00,WUHU216HW,2013-07-08 05:11:00,
2013-07-08 00:16:00,70.9,66.5,29.90,NNE,23,0.4,1.1,86,0.00,,,0.00,WUHU216HW,2013-07-08 05:16:00,
2013-07-08 00:21:00,70.9,66.9,29.90,WSW,248,0.2,1.1,87,0.00,,,0.00,WUHU216HW,2013-07-08 05:21:00,
2013-07-08 00:26:00,70.9,66.9,29.91,WNW,293,0.0,1.6,87,0.00,,,0.00,WUHU216HW,2013-07-08 05:26:00,
2013-07-08 00:31:00,70.9,66.9,29.91,NW,315,0.0,1.6,87,0.00,,,0.00,WUHU216HW,2013-07-08 05:31:00,
2013-07-08 00:36:00,70.7,66.7,29.92,NW,315,0.0,0.0,87,0.00,,,0.00,WUHU216HW,2013-07-08 05:36:00,
2013-07-08 00:41:00,70.6,66.5,29.91,NW,315,0.0,0.2,87,0.00,,,0.00,WUHU216HW,2013-07-08 05:41:00,
2013-07-08 00:46:00,70.7,66.7,29.92,WNW,293,0.4,1.1,87,0.00,,,0.00,WUHU216HW,2013-07-08 05:46:00,
2013-07-08 00:51:00,70.7,66.7,29.92,WNW,293,0.9,1.1,87,0.00,,,0.00,WUHU216HW,2013-07-08 05:51:00,
2013-07-08 00:56:00,70.7,66.7,29.92,NNE,23,0.4,1.8,87,0.00,,,0.00,WUHU216HW,2013-07-08 05:56:00,
2013-07-08 01:01:00,70.9,67.1,29.92,NW,315,0.4,1.8,88,0.00,,,0.00,WUHU216HW,2013-07-08 06:01:00,
2013-07-08 01:06:00,70.7,66.7,29.92,SE,135,0.2,1.6,87,0.00,,,0.00,WUHU216HW,2013-07-08 06:06:00,
2013-07-08 01:11:00,70.7,66.7,29.92,SE,135,0.0,1.1,87,0.00,,,0.00,WUHU216HW,2013-07-08 06:11:00,
2013-07-08 01:16:00,70.7,67.0,29.92,SSE,158,0.4,0.4,88,0.00,,,0.00,WUHU216HW,2013-07-08 06:16:00,
2013-07-08 01:21:00,70.9,67.1,29.93,West,270,0.4,0.4,88,0.00,,,0.00,WUHU216HW,2013-07-08 06:21:00,
2013-07-08 01:26:00,70.9,67.1,29.93,NNE,23,0.0,1.3,88,0.00,,,0.00,WUHU216HW,2013-07-08 06:26:00,
2013-07-08 01:31:00,70.9,67.1,29.93,ESE,113,0.0,1.3,88,0.00,,,0.00,WUHU216HW,2013-07-08 06:31:00,
2013-07-08 01:36:00,70.9,66.9,29.92,NW,315,0.2,0.9,87,0.00,,,0.00,WUHU216HW,2013-07-08 06:36:00,
2013-07-08 01:41:00,70.9,66.9,29.92,SE,135,0.4,1.6,87,0.00,,,0.00,WUHU216HW,2013-07-08 06:41:00,
2013-07-08 01:46:00,70.9,67.1,29.92,West,270,1.1,1.6,88,0.00,,,0.00,WUHU216HW,2013-07-08 06:46:00,
2013-07-08 01:51:00,70.7,67.0,29.92,West,270,0.4,1.1,88,0.00,,,0.00,WUHU216HW,2013-07-08 06:51:00,
2013-07-08 01:56:00,70.7,67.0,29.92,NW,315,0.4,1.1,88,0.00,,,0.00,WUHU216HW,2013-07-08 06:56:00,
2013-07-08 02:01:00,70.7,67.0,29.92,WNW,293,0.0,1.1,88,0.00,,,0.00,WUHU216HW,2013-07-08 07:01:00,
2013-07-08 02:06:00,70.6,66.5,29.92,WSW,248,0.0,1.1,87,0.00,,,0.00,WUHU216HW,2013-07-08 07:06:00,
2013-07-08 02:11:00,70.6,66.8,29.93,WSW,248,0.9,0.9,88,0.00,,,0.00,WUHU216HW,2013-07-08 07:11:00,
2013-07-08 02:16:00,70.6,66.8,29.93,NNE,23,0.2,1.3,88,0.00,,,0.00,WUHU216HW,2013-07-08 07:16:00,
2013-07-08 02:21:00,70.4,66.3,29.93,NNE,23,0.0,1.3,87,0.00,,,0.00,WUHU216HW,2013-07-08 07:21:00,
2013-07-08 02:26:00,70.2,66.2,29.93,NNE,23,0.0,0.4,87,0.00,,,0.00,WUHU216HW,2013-07-08 07:26:00,
2013-07-08 02:31:00,69.8,65.8,29.93,NNE,23,0.0,0.0,87,0.00,,,0.00,WUHU216HW,2013-07-08 07:31:00,
2013-07-08 02:36:00,69.7,65.9,29.93,NNE,23,0.0,0.0,88,0.00,,,0.00,WUHU216HW,2013-07-08 07:36:00,
2013-07-08 02:41:00,69.7,65.9,29.93,NNE,23,0.0,0.2,88,0.00,,,0.00,WUHU216HW,2013-07-08 07:41:00,
2013-07-08 02:46:00,69.7,65.9,29.93,West,270,0.4,0.4,88,0.00,,,0.00,WUHU216HW,2013-07-08 07:46:00,
2013-07-08 02:51:00,69.7,65.9,29.93,West,270,0.0,0.4,88,0.00,,,0.00,WUHU216HW,2013-07-08 07:51:00,
2013-07-08 02:56:00,69.7,66.2,29.93,West,270,0.2,0.9,89,0.00,,,0.00,WUHU216HW,2013-07-08 07:56:00,
2013-07-08 03:01:00,69.5,65.7,29.92,West,270,0.2,0.9,88,0.00,,,0.00,WUHU216HW,2013-07-08 08:01:00,
2013-07-08 03:06:00,69.5,65.7,29.92,North,0,0.0,0.9,88,0.00,,,0.00,WUHU216HW,2013-07-08 08:06:00,
2013-07-08 03:11:00,69.3,65.6,29.92,SSE,158,0.4,1.1,88,0.00,,,0.00,WUHU216HW,2013-07-08 08:11:00,
2013-07-08 03:16:00,69.5,65.7,29.92,NNE,23,0.4,1.1,88,0.00,,,0.00,WUHU216HW,2013-07-08 08:16:00,
2013-07-08 03:21:00,69.5,65.7,29.92,South,180,0.4,1.3,88,0.00,,,0.00,WUHU216HW,2013-07-08 08:21:00,
2013-07-08 03:26:00,69.3,65.6,29.92,South,180,0.2,1.3,88,0.00,,,0.00,WUHU216HW,2013-07-08 08:26:00,
2013-07-08 03:31:00,69.3,65.6,29.92,SE,135,0.0,1.1,88,0.00,,,0.00,WUHU216HW,2013-07-08 08:31:00,
2013-07-08 03:36:00,69.1,65.4,29.92,SSE,158,0.0,1.1,88,0.00,,,0.00,WUHU216HW,2013-07-08 08:36:00,
2013-07-08 03:41:00,69.1,65.7,29.92,SSE,158,0.0,0.7,89,0.00,,,0.00,WUHU216HW,2013-07-08 08:41:00,
2013-07-08 03:46:00,69.1,65.7,29.92,NE,45,0.4,0.9,89,0.00,,,0.00,WUHU216HW,2013-07-08 08:46:00,
2013-07-08 03:51:00,68.9,65.5,29.92,SSE,158,0.2,0.9,89,0.00,,,0.00,WUHU216HW,2013-07-08 08:51:00,
2013-07-08 03:56:00,68.9,65.5,29.92,SSE,158,0.4,0.7,89,0.00,,,0.00,WUHU216HW,2013-07-08 08:56:00,
2013-07-08 04:01:00,68.8,65.3,29.91,SSE,158,0.0,0.7,89,0.00,,,0.00,WUHU216HW,2013-07-08 09:01:00,
2013-07-08 04:06:00,68.8,65.3,29.92,East,90,0.0,1.1,89,0.00,,,0.00,WUHU216HW,2013-07-08 09:06:00,
2013-07-08 04:11:00,68.8,65.3,29.92,East,90,0.0,1.1,89,0.00,,,0.00,WUHU216HW,2013-07-08 09:11:00,
2013-07-08 04:16:00,68.6,65.2,29.91,East,90,0.0,0.2,89,0.00,,,0.00,WUHU216HW,2013-07-08 09:16:00,
2013-07-08 04:21:00,68.4,65.0,29.91,East,90,0.0,0.2,89,0.00,,,0.00,WUHU216HW,2013-07-08 09:21:00,
2013-07-08 04:26:00,68.4,65.0,29.92,ENE,68,0.0,0.2,89,0.00,,,0.00,WUHU216HW,2013-07-08 09:26:00,
2013-07-08 04:31:00,68.2,64.8,29.92,NNW,338,0.4,0.4,89,0.00,,,0.00,WUHU216HW,2013-07-08 09:31:00,
2013-07-08 04:36:00,68.2,64.8,29.92,NNW,338,0.2,0.4,89,0.00,,,0.00,WUHU216HW,2013-07-08 09:36:00,
2013-07-08 04:41:00,68.2,65.2,29.92,West,270,0.0,0.7,90,0.00,,,0.00,WUHU216HW,2013-07-08 09:41:00,
2013-07-08 04:46:00,68.2,65.2,29.92,West,270,0.0,0.7,90,0.00,,,0.00,WUHU216HW,2013-07-08 09:46:00,
2013-07-08 04:51:00,68.2,65.2,29.92,West,270,0.0,0.4,90,0.00,,,0.00,WUHU216HW,2013-07-08 09:51:00,
2013-07-08 04:56:00,68.0,65.0,29.92,WNW,293,0.0,0.4,90,0.00,,,0.00,WUHU216HW,2013-07-08 09:56:00,
2013-07-08 05:01:00,68.0,65.0,29.92,WNW,293,0.0,0.0,90,0.00,,,0.00,WUHU216HW,2013-07-08 10:01:00,
2013-07-08 05:06:00,67.9,64.8,29.92,WNW,293,0.0,0.0,90,0.00,,,0.00,WUHU216HW,2013-07-08 10:06:00,
2013-07-08 05:11:00,67.7,64.6,29.92,WNW,293,0.0,0.0,90,0.00,,,0.00,WUHU216HW,2013-07-08 10:11:00,
2013-07-08 05:16:00,67.7,64.6,29.92,WNW,293,0.0,0.0,90,0.00,,,0.00,WUHU216HW,2013-07-08 10:16:00,
2013-07-08 05:21:00,67.7,64.9,29.92,SE,135,0.2,1.1,91,0.00,,,0.00,WUHU216HW,2013-07-08 10:21:00,
2013-07-08 05:26:00,67.7,64.6,29.92,SE,135,0.4,1.1,90,0.00,,,0.00,WUHU216HW,2013-07-08 10:26:00,
2013-07-08 05:31:00,67.7,64.9,29.92,West,270,0.4,0.9,91,0.00,,,0.00,WUHU216HW,2013-07-08 10:31:00,
2013-07-08 05:36:00,67.5,64.4,29.93,West,270,0.0,0.7,90,0.00,,,0.00,WUHU216HW,2013-07-08 10:36:00,
2013-07-08 05:41:00,67.3,64.3,29.93,WSW,248,0.0,0.7,90,0.00,,,0.00,WUHU216HW,2013-07-08 10:41:00,
2013-07-08 05:46:00,67.1,64.4,29.94,WSW,248,0.4,0.7,91,0.00,,,0.00,WUHU216HW,2013-07-08 10:46:00,
2013-07-08 05:51:00,67.3,64.5,29.94,West,270,0.4,0.7,91,0.00,,,0.00,WUHU216HW,2013-07-08 10:51:00,
2013-07-08 05:56:00,67.3,64.5,29.93,West,270,0.0,0.7,91,0.00,,,0.00,WUHU216HW,2013-07-08 10:56:00,
2013-07-08 06:01:00,67.1,64.4,29.93,West,270,0.0,0.4,91,0.00,,,0.00,WUHU216HW,2013-07-08 11:01:00,
2013-07-08 06:06:00,67.1,64.4,29.94,North,0,0.0,0.4,91,0.00,,,0.00,WUHU216HW,2013-07-08 11:06:00,
2013-07-08 06:11:00,67.1,64.4,29.94,NNE,23,0.0,0.4,91,0.00,,,0.00,WUHU216HW,2013-07-08 11:11:00,
2013-07-08 06:16:00,67.3,64.5,29.94,NNE,23,0.0,0.4,91,0.00,,,0.00,WUHU216HW,2013-07-08 11:16:00,
2013-07-08 06:21:00,67.7,64.9,29.93,NNE,23,0.0,0.4,91,0.00,,,0.00,WUHU216HW,2013-07-08 11:21:00,
2013-07-08 06:26:00,67.9,65.1,29.93,NNE,23,0.0,0.2,91,0.00,,,0.00,WUHU216HW,2013-07-08 11:26:00,
2013-07-08 06:31:00,67.9,65.1,29.93,NNW,338,0.0,0.2,91,0.00,,,0.00,WUHU216HW,2013-07-08 11:31:00,
2013-07-08 06:36:00,68.0,65.3,29.93,NE,45,0.0,0.2,91,0.00,,,0.00,WUHU216HW,2013-07-08 11:36:00,
2013-07-08 06:41:00,68.2,65.4,29.94,NE,45,0.2,0.4,91,0.00,,,0.00,WUHU216HW,2013-07-08 11:41:00,
2013-07-08 06:46:00,68.4,65.6,29.94,South,180,0.4,1.1,91,0.00,,,0.00,WUHU216HW,2013-07-08 11:46:00,
2013-07-08 06:51:00,68.6,65.8,29.94,NE,45,0.2,1.1,91,0.00,,,0.00,WUHU216HW,2013-07-08 11:51:00,
2013-07-08 06:56:00,68.8,66.0,29.95,SE,135,0.2,1.1,91,0.00,,,0.00,WUHU216HW,2013-07-08 11:56:00,
2013-07-08 07:01:00,68.9,66.2,29.95,East,90,0.0,1.8,91,0.00,,,0.00,WUHU216HW,2013-07-08 12:01:00,
2013-07-08 07:06:00,69.1,66.3,29.96,South,180,0.0,1.8,91,0.00,,,0.00,WUHU216HW,2013-07-08 12:06:00,
2013-07-08 07:11:00,69.5,66.7,29.96,East,90,1.1,1.1,91,0.00,,,0.00,WUHU216HW,2013-07-08 12:11:00,
2013-07-08 07:16:00,69.7,66.6,29.96,SSE,158,1.1,1.3,90,0.00,,,0.00,WUHU216HW,2013-07-08 12:16:00,
2013-07-08 07:21:00,69.7,66.6,29.96,NNE,23,0.7,1.3,90,0.00,,,0.00,WUHU216HW,2013-07-08 12:21:00,
2013-07-08 07:26:00,69.8,66.4,29.96,East,90,0.2,1.1,89,0.00,,,0.00,WUHU216HW,2013-07-08 12:26:00,
2013-07-08 07:31:00,70.0,66.6,29.96,NNE,23,0.2,0.9,89,0.00,,,0.00,WUHU216HW,2013-07-08 12:31:00,
2013-07-08 07:36:00,70.0,66.2,29.97,WSW,248,0.0,0.9,88,0.00,,,0.00,WUHU216HW,2013-07-08 12:36:00,
2013-07-08 07:41:00,70.0,66.2,29.97,NNE,23,0.0,1.3,88,0.00,,,0.00,WUHU216HW,2013-07-08 12:41:00,
2013-07-08 07:46:00,70.2,66.4,29.97,NNE,23,0.0,1.3,88,0.00,,,0.00,WUHU216HW,2013-07-08 12:46:00,
2013-07-08 07:51:00,70.2,66.4,29.97,NNE,23,0.4,1.1,88,0.00,,,0.00,WUHU216HW,2013-07-08 12:51:00,
2013-07-08 07:56:00,70.2,66.4,29.97,South,180,0.2,1.1,88,0.00,,,0.00,WUHU216HW,2013-07-08 12:56:00,
2013-07-08 08:01:00,70.4,66.6,29.97,NNW,338,1.3,1.3,88,0.00,,,0.00,WUHU216HW,2013-07-08 13:01:00,
2013-07-08 08:06:00,70.4,66.3,29.97,SE,135,0.4,1.3,87,0.00,,,0.00,WUHU216HW,2013-07-08 13:06:00,
2013-07-08 08:11:00,70.7,66.7,29.97,SSE,158,0.4,1.1,87,0.00,,,0.00,WUHU216HW,2013-07-08 13:11:00,
2013-07-08 08:16:00,71.1,67.1,29.97,SE,135,0.9,2.2,87,0.00,,,0.00,WUHU216HW,2013-07-08 13:16:00,
2013-07-08 08:21:00,71.5,67.1,29.97,East,90,0.4,2.2,86,0.00,,,0.00,WUHU216HW,2013-07-08 13:21:00,
2013-07-08 08:26:00,71.6,67.2,29.97,South,180,0.7,1.1,86,0.00,,,0.00,WUHU216HW,2013-07-08 13:26:00,
2013-07-08 08:31:00,71.6,66.5,29.97,NE,45,1.1,1.6,84,0.00,,,0.00,WUHU216HW,2013-07-08 13:31:00,
2013-07-08 08:36:00,71.8,66.7,29.98,South,180,0.0,2.2,84,0.00,,,0.00,WUHU216HW,2013-07-08 13:36:00,
2013-07-08 08:41:00,72.0,66.9,29.98,ESE,113,0.9,2.2,84,0.00,,,0.00,WUHU216HW,2013-07-08 13:41:00,
2013-07-08 08:46:00,72.0,66.9,29.98,ENE,68,0.4,1.8,84,0.00,,,0.00,WUHU216HW,2013-07-08 13:46:00,
2013-07-08 08:51:00,72.4,66.9,29.98,SE,135,0.9,3.8,83,0.00,,,0.00,WUHU216HW,2013-07-08 13:51:00,
2013-07-08 08:56:00,72.7,67.2,29.98,NNE,23,0.7,3.8,83,0.00,,,0.00,WUHU216HW,2013-07-08 13:56:00,
2013-07-08 09:01:00,73.1,67.6,29.99,East,90,0.4,1.6,83,0.00,,,0.00,WUHU216HW,2013-07-08 14:01:00,
2013-07-08 09:06:00,73.4,68.0,29.99,East,90,1.1,1.6,83,0.00,,,0.00,WUHU216HW,2013-07-08 14:06:00,
2013-07-08 09:11:00,73.8,68.3,29.99,SE,135,1.1,1.8,83,0.00,,,0.00,WUHU216HW,2013-07-08 14:11:00,
2013-07-08 09:16:00,74.2,68.1,29.99,WNW,293,0.9,2.5,81,0.00,,,0.00,WUHU216HW,2013-07-08 14:16:00,
2013-07-08 09:21:00,75.2,69.5,29.99,NNW,338,0.2,2.5,82,0.00,,,0.00,WUHU216HW,2013-07-08 14:21:00,
2013-07-08 09:26:00,76.5,70.3,29.99,SSE,158,0.9,2.0,81,0.00,,,0.00,WUHU216HW,2013-07-08 14:26:00,
2013-07-08 09:31:00,77.4,70.0,29.99,West,270,0.4,1.8,78,0.00,,,0.00,WUHU216HW,2013-07-08 14:31:00,
2013-07-08 09:36:00,78.3,70.1,29.99,SSW,203,1.1,1.8,76,0.00,,,0.00,WUHU216HW,2013-07-08 14:36:00,
2013-07-08 09:41:00,79.0,69.6,29.99,SW,225,1.8,1.8,73,0.00,,,0.00,WUHU216HW,2013-07-08 14:41:00,
2013-07-08 09:46:00,79.7,69.9,29.99,WSW,248,0.9,1.8,72,0.00,,,0.00,WUHU216HW,2013-07-08 14:46:00,
2013-07-08 09:51:00,81.0,71.1,29.99,NE,45,0.0,1.8,72,0.00,,,0.00,WUHU216HW,2013-07-08 14:51:00,
2013-07-08 09:56:00,82.1,69.9,29.99,NW,315,0.9,1.1,67,0.00,,,0.00,WUHU216HW,2013-07-08 14:56:00,
2013-07-08 10:01:00,81.4,69.8,30.00,WSW,248,0.4,2.0,68,0.00,,,0.00,WUHU216HW,2013-07-08 15:01:00,
2013-07-08 10:06:00,81.7,69.2,30.00,NW,315,2.2,2.2,66,0.00,,,0.00,WUHU216HW,2013-07-08 15:06:00,
2013-07-08 10:11:00,81.2,69.6,30.00,NNE,23,0.4,2.2,68,0.00,,,0.00,WUHU216HW,2013-07-08 15:11:00,
2013-07-08 10:16:00,81.9,69.9,30.00,WNW,293,1.6,2.5,67,0.00,,,0.00,WUHU216HW,2013-07-08 15:16:00,
2013-07-08 10:21:00,81.4,69.8,30.00,NW,315,0.9,3.1,68,0.00,,,0.00,WUHU216HW,2013-07-08 15:21:00,
2013-07-08 10:26:00,81.9,69.4,30.01,WNW,293,0.9,3.1,66,0.00,,,0.00,WUHU216HW,2013-07-08 15:26:00,
2013-07-08 10:31:00,81.9,69.4,30.01,ENE,68,2.7,4.0,66,0.00,,,0.00,WUHU216HW,2013-07-08 15:31:00,
2013-07-08 10:36:00,80.5,68.0,30.01,ESE,113,0.9,4.3,66,0.00,,,0.00,WUHU216HW,2013-07-08 15:36:00,
2013-07-08 10:41:00,81.2,69.6,30.01,NNE,23,0.7,4.3,68,0.00,,,0.00,WUHU216HW,2013-07-08 15:41:00,
2013-07-08 10:46:00,82.4,69.4,30.01,West,270,2.5,2.5,65,0.00,,,0.00,WUHU216HW,2013-07-08 15:46:00,
2013-07-08 10:51:00,83.2,71.0,30.01,East,90,0.9,2.5,67,0.00,,,0.00,WUHU216HW,2013-07-08 15:51:00,
2013-07-08 10:56:00,83.9,69.9,30.01,North,0,2.5,2.5,63,0.00,,,0.00,WUHU216HW,2013-07-08 15:56:00,
2013-07-08 11:01:00,83.0,69.9,30.00,NE,45,0.7,2.5,65,0.00,,,0.00,WUHU216HW,2013-07-08 16:01:00,
2013-07-08 11:06:00,82.4,68.9,30.01,SSW,203,1.8,3.4,64,0.00,,,0.00,WUHU216HW,2013-07-08 16:06:00,
2013-07-08 11:11:00,82.8,70.7,30.01,West,270,1.3,3.4,67,0.00,,,0.00,WUHU216HW,2013-07-08 16:11:00,
2013-07-08 11:16:00,83.7,71.1,30.01,WSW,248,1.1,2.5,66,0.00,,,0.00,WUHU216HW,2013-07-08 16:16:00,
2013-07-08 11:21:00,82.6,68.7,30.00,ENE,68,1.6,4.0,63,0.00,,,0.00,WUHU216HW,2013-07-08 16:21:00,
2013-07-08 11:26:00,83.2,70.6,30.00,SE,135,0.9,4.0,66,0.00,,,0.00,WUHU216HW,2013-07-08 16:26:00,
2013-07-08 11:31:00,82.6,68.7,30.00,SSW,203,3.4,4.0,63,0.00,,,0.00,WUHU216HW,2013-07-08 16:31:00,
2013-07-08 11:36:00,82.8,70.2,30.00,West,270,0.7,4.0,66,0.00,,,0.00,WUHU216HW,2013-07-08 16:36:00,
2013-07-08 11:41:00,83.5,70.9,30.00,East,90,0.4,3.4,66,0.00,,,0.00,WUHU216HW,2013-07-08 16:41:00,
2013-07-08 11:46:00,85.1,71.6,30.00,NNE,23,1.8,3.1,64,0.00,,,0.00,WUHU216HW,2013-07-08 16:46:00,
2013-07-08 11:51:00,84.2,69.8,30.00,North,0,2.0,4.5,62,0.00,,,0.00,WUHU216HW,2013-07-08 16:51:00,
2013-07-08 11:57:00,84.4,70.9,30.00,West,270,1.3,4.5,64,0.00,,,0.00,WUHU216HW,2013-07-08 16:57:00,
2013-07-08 12:02:00,85.3,70.4,30.00,ESE,113,1.3,4.5,61,0.00,,,0.00,WUHU216HW,2013-07-08 17:02:00,
2013-07-08 12:07:00,86.8,72.6,30.00,North,0,1.8,4.5,63,0.00,,,0.00,WUHU216HW,2013-07-08 17:07:00,
2013-07-08 12:12:00,87.8,72.4,29.99,NNW,338,1.8,1.8,60,0.00,,,0.00,WUHU216HW,2013-07-08 17:12:00,
2013-07-08 12:17:00,88.6,72.5,29.99,North,0,1.8,1.8,59,0.00,,,0.00,WUHU216HW,2013-07-08 17:17:00,
2013-07-08 12:22:00,89.1,72.5,29.99,ENE,68,0.4,3.4,58,0.00,,,0.00,WUHU216HW,2013-07-08 17:22:00,
2013-07-08 12:27:00,88.9,70.7,29.99,West,270,2.0,3.4,55,0.00,,,0.00,WUHU216HW,2013-07-08 17:27:00,
2013-07-08 12:32:00,88.7,72.1,29.99,NNW,338,0.4,2.5,58,0.00,,,0.00,WUHU216HW,2013-07-08 17:32:00,
2013-07-08 12:37:00,88.4,71.7,29.99,ENE,68,0.4,2.2,58,0.00,,,0.00,WUHU216HW,2013-07-08 17:37:00,
2013-07-08 12:42:00,87.3,70.2,29.98,West,270,1.8,4.0,57,0.00,,,0.00,WUHU216HW,2013-07-08 17:42:00,
2013-07-08 12:47:00,86.6,70.6,29.98,WSW,248,1.8,4.0,59,0.00,,,0.00,WUHU216HW,2013-07-08 17:47:00,
2013-07-08 12:52:00,86.8,70.2,29.98,WNW,293,2.5,4.0,58,0.00,,,0.00,WUHU216HW,2013-07-08 17:52:00,
2013-07-08 12:58:00,86.4,70.4,29.98,West,270,1.8,4.0,59,0.00,,,0.00,WUHU216HW,2013-07-08 17:58:00,
2013-07-08 13:03:00,87.3,71.3,29.98,North,0,1.3,4.0,59,0.00,,,0.00,WUHU216HW,2013-07-08 18:03:00,
2013-07-08 13:08:00,88.4,72.3,29.98,WNW,293,2.0,2.9,59,0.00,,,0.00,WUHU216HW,2013-07-08 18:08:00,
2013-07-08 13:13:00,89.1,72.5,29.98,SE,135,0.7,2.7,58,0.00,,,0.00,WUHU216HW,2013-07-08 18:13:00,
2013-07-08 13:18:00,90.5,71.6,29.99,WSW,248,1.3,2.7,54,0.00,,,0.00,WUHU216HW,2013-07-08 18:18:00,
2013-07-08 13:24:00,90.9,73.0,29.99,NNE,23,0.4,2.0,56,0.00,,,0.00,WUHU216HW,2013-07-08 18:24:00,
2013-07-08 13:29:00,92.0,71.8,29.99,West,270,2.0,2.5,52,0.00,,,0.00,WUHU216HW,2013-07-08 18:29:00,
2013-07-08 13:34:00,91.6,73.1,29.99,North,0,0.4,2.5,55,0.00,,,0.00,WUHU216HW,2013-07-08 18:34:00,
2013-07-08 13:40:00,92.2,73.6,29.99,SE,135,0.0,2.5,55,0.00,,,0.00,WUHU216HW,2013-07-08 18:40:00,
2013-07-08 13:45:00,91.4,71.3,29.99,NW,315,3.8,4.0,52,0.00,,,0.00,WUHU216HW,2013-07-08 18:45:00,
2013-07-08 13:50:00,90.4,72.5,29.99,SSE,158,0.9,4.3,56,0.00,,,0.00,WUHU216HW,2013-07-08 18:50:00,
2013-07-08 13:55:00,90.2,71.7,29.98,SE,135,0.7,4.3,55,0.00,,,0.00,WUHU216HW,2013-07-08 18:55:00,
2013-07-08 14:00:00,90.9,73.0,29.98,ENE,68,0.4,4.0,56,0.00,,,0.00,WUHU216HW,2013-07-08 19:00:00,
2013-07-08 14:06:00,91.6,73.6,29.98,SSW,203,0.9,1.3,56,0.00,,,0.00,WUHU216HW,2013-07-08 19:06:00,
2013-07-08 14:12:00,92.5,73.4,29.98,WSW,248,0.4,1.3,54,0.00,,,0.00,WUHU216HW,2013-07-08 19:12:00,
2013-07-08 14:17:00,92.2,73.1,29.98,ESE,113,0.9,3.4,54,0.00,,,0.00,WUHU216HW,2013-07-08 19:17:00,
2013-07-08 14:22:00,92.0,72.9,29.98,West,270,1.3,3.4,54,0.00,,,0.00,WUHU216HW,2013-07-08 19:22:00,
2013-07-08 14:28:00,91.8,71.1,29.98,NW,315,2.9,4.0,51,0.00,,,0.00,WUHU216HW,2013-07-08 19:28:00,
2013-07-08 14:33:00,91.1,70.9,29.98,NW,315,2.5,4.0,52,0.00,,,0.00,WUHU216HW,2013-07-08 19:33:00,
2013-07-08 14:38:00,91.1,72.0,29.98,North,0,1.1,3.6,54,0.00,,,0.00,WUHU216HW,2013-07-08 19:38:00,
2013-07-08 14:43:00,92.5,72.8,29.97,West,270,1.8,3.6,53,0.00,,,0.00,WUHU216HW,2013-07-08 19:43:00,
2013-07-08 14:48:00,92.5,72.3,29.97,WSW,248,2.5,4.7,52,0.00,,,0.00,WUHU216HW,2013-07-08 19:48:00,
2013-07-08 14:54:00,93.2,72.4,29.97,West,270,1.1,4.7,51,0.00,,,0.00,WUHU216HW,2013-07-08 19:54:00,
2013-07-08 14:59:00,93.6,73.3,29.97,SE,135,0.7,3.4,52,0.00,,,0.00,WUHU216HW,2013-07-08 19:59:00,
2013-07-08 15:04:00,92.7,72.5,29.97,ESE,113,0.4,2.7,52,0.00,,,0.00,WUHU216HW,2013-07-08 20:04:00,
2013-07-08 15:10:00,92.0,72.4,29.97,SSE,158,0.7,2.7,53,0.00,,,0.00,WUHU216HW,2013-07-08 20:10:00,
2013-07-08 15:15:00,91.8,72.7,29.97,WSW,248,1.1,2.7,54,0.00,,,0.00,WUHU216HW,2013-07-08 20:15:00,
2013-07-08 15:20:00,91.4,71.3,29.97,ENE,68,1.8,2.7,52,0.00,,,0.00,WUHU216HW,2013-07-08 20:20:00,
2013-07-08 15:26:00,90.4,70.8,29.97,West,270,2.5,3.1,53,0.00,,,0.00,WUHU216HW,2013-07-08 20:26:00,
2013-07-08 15:31:00,90.7,71.7,29.97,SW,225,1.1,3.1,54,0.00,,,0.00,WUHU216HW,2013-07-08 20:31:00,
2013-07-08 15:36:00,92.5,72.8,29.97,ENE,68,0.7,3.4,53,0.00,,,0.00,WUHU216HW,2013-07-08 20:36:00,
2013-07-08 15:42:00,95.4,74.5,29.97,ENE,68,0.4,3.4,51,0.00,,,0.00,WUHU216HW,2013-07-08 20:42:00,
2013-07-08 15:47:00,96.5,74.3,29.97,South,180,1.3,2.0,49,0.00,,,0.00,WUHU216HW,2013-07-08 20:47:00,
2013-07-08 15:52:00,97.6,74.5,29.97,NNW,338,0.4,2.0,48,0.00,,,0.00,WUHU216HW,2013-07-08 20:52:00,
2013-07-08 15:57:00,97.4,73.7,29.97,South,180,1.3,3.4,47,0.00,,,0.00,WUHU216HW,2013-07-08 20:57:00,
2013-07-08 16:02:00,97.2,73.5,29.97,WNW,293,0.4,3.4,47,0.00,,,0.00,WUHU216HW,2013-07-08 21:02:00,
2013-07-08 16:07:00,97.2,73.5,29.97,WSW,248,1.8,1.8,47,0.00,,,0.00,WUHU216HW,2013-07-08 21:07:00,
2013-07-08 16:12:00,97.6,74.5,29.97,SE,135,0.7,1.8,48,0.00,,,0.00,WUHU216HW,2013-07-08 21:12:00,
2013-07-08 16:18:00,98.6,74.2,29.97,WSW,248,1.1,1.8,46,0.00,,,0.00,WUHU216HW,2013-07-08 21:18:00,
2013-07-08 16:24:00,96.3,72.1,29.97,SE,135,0.4,2.9,46,0.00,,,0.00,WUHU216HW,2013-07-08 21:24:00,
2013-07-08 16:29:00,96.7,71.7,29.97,WSW,248,1.3,3.6,45,0.00,,,0.00,WUHU216HW,2013-07-08 21:29:00,
2013-07-08 16:34:00,97.2,72.9,29.97,West,270,1.8,3.6,46,0.00,,,0.00,WUHU216HW,2013-07-08 21:34:00,
2013-07-08 16:39:00,97.0,70.7,29.97,WSW,248,3.4,3.4,43,0.00,,,0.00,WUHU216HW,2013-07-08 21:39:00,
2013-07-08 16:44:00,96.8,72.5,29.97,East,90,1.1,3.4,46,0.00,,,0.00,WUHU216HW,2013-07-08 21:44:00,
2013-07-08 16:50:00,97.2,73.5,29.97,SSE,158,1.6,3.4,47,0.00,,,0.00,WUHU216HW,2013-07-08 21:50:00,
2013-07-08 16:55:00,98.6,73.5,29.97,ENE,68,0.2,2.2,45,0.00,,,0.00,WUHU216HW,2013-07-08 21:55:00,
2013-07-08 17:01:00,99.5,73.0,29.96,West,270,1.1,2.2,43,0.00,,,0.00,WUHU216HW,2013-07-08 22:01:00,
2013-07-08 17:06:00,99.9,71.4,29.97,WSW,248,2.0,2.5,40,0.00,,,0.00,WUHU216HW,2013-07-08 22:06:00,
2013-07-08 17:11:00,97.9,70.2,29.97,North,0,1.1,4.7,41,0.00,,,0.00,WUHU216HW,2013-07-08 22:11:00,
2013-07-08 17:17:00,96.3,70.7,29.96,WNW,293,2.7,4.7,44,0.00,,,0.00,WUHU216HW,2013-07-08 22:17:00,
2013-07-08 17:22:00,96.3,70.1,29.96,NW,315,1.1,4.0,43,0.00,,,0.00,WUHU216HW,2013-07-08 22:22:00,
2013-07-08 17:27:00,97.6,71.9,29.96,WSW,248,0.7,1.8,44,0.00,,,0.00,WUHU216HW,2013-07-08 22:27:00,
2013-07-08 17:32:00,98.1,71.7,29.96,NNE,23,0.4,2.2,43,0.00,,,0.00,WUHU216HW,2013-07-08 22:32:00,
2013-07-08 17:37:00,97.0,70.7,29.96,NNE,23,0.7,4.5,43,0.00,,,0.00,WUHU216HW,2013-07-08 22:37:00,
2013-07-08 17:43:00,96.5,71.6,29.96,South,180,0.4,4.5,45,0.00,,,0.00,WUHU216HW,2013-07-08 22:43:00,
2013-07-08 17:48:00,97.6,71.9,29.96,SSW,203,0.4,4.0,44,0.00,,,0.00,WUHU216HW,2013-07-08 22:48:00,
2013-07-08 17:53:00,98.3,70.6,29.96,WNW,293,2.5,4.0,41,0.00,,,0.00,WUHU216HW,2013-07-08 22:53:00,
2013-07-08 17:58:00,96.5,70.3,29.96,West,270,2.9,3.6,43,0.00,,,0.00,WUHU216HW,2013-07-08 22:58:00,
2013-07-08 18:03:00,95.8,70.9,29.96,West,270,1.3,3.6,45,0.00,,,0.00,WUHU216HW,2013-07-08 23:03:00,
2013-07-08 18:09:00,96.1,70.6,29.96,West,270,4.0,4.0,44,0.00,,,0.00,WUHU216HW,2013-07-08 23:09:00,
2013-07-08 18:14:00,96.7,71.7,29.95,NNW,338,0.4,4.0,45,0.00,,,0.00,WUHU216HW,2013-07-08 23:14:00,
2013-07-08 18:20:00,96.7,70.4,29.95,West,270,3.1,3.4,43,0.00,,,0.00,WUHU216HW,2013-07-08 23:20:00,
2013-07-08 18:25:00,95.4,70.7,29.95,WSW,248,2.2,4.0,45,0.00,,,0.00,WUHU216HW,2013-07-08 23:25:00,
2013-07-08 18:30:00,94.7,70.7,29.96,West,270,1.8,4.0,46,0.00,,,0.00,WUHU216HW,2013-07-08 23:30:00,
2013-07-08 18:35:00,95.2,70.5,29.95,West,270,0.4,3.4,45,0.00,,,0.00,WUHU216HW,2013-07-08 23:35:00,
2013-07-08 18:40:00,94.9,70.7,29.95,NW,315,1.3,1.8,46,0.00,,,0.00,WUHU216HW,2013-07-08 23:40:00,
2013-07-08 18:46:00,94.7,70.7,29.95,WSW,248,1.6,2.5,46,0.00,,,0.00,WUHU216HW,2013-07-08 23:46:00,
2013-07-08 18:51:00,94.5,70.5,29.95,NNE,23,0.4,3.1,46,0.00,,,0.00,WUHU216HW,2013-07-08 23:51:00,
2013-07-08 18:57:00,94.7,71.3,29.95,SSE,158,0.7,2.5,47,0.00,,,0.00,WUHU216HW,2013-07-08 23:57:00,
2013-07-08 19:02:00,93.8,69.8,29.95,ENE,68,0.0,1.3,46,0.00,,,0.00,WUHU216HW,2013-07-09 00:02:00,
2013-07-08 19:07:00,92.0,69.4,29.95,SE,135,0.0,0.7,48,0.00,,,0.00,WUHU216HW,2013-07-09 00:07:00,
2013-07-08 19:12:00,90.7,69.0,29.95,WNW,293,0.4,0.4,49,0.00,,,0.00,WUHU216HW,2013-07-09 00:12:00,
2013-07-08 19:17:00,89.8,68.8,29.95,NNW,338,0.2,1.1,50,0.00,,,0.00,WUHU216HW,2013-07-09 00:17:00,
2013-07-08 19:22:00,89.5,68.9,29.95,SSE,158,0.4,1.1,51,0.00,,,0.00,WUHU216HW,2013-07-09 00:22:00,
2013-07-08 19:27:00,88.7,69.4,29.95,SW,225,1.3,1.6,53,0.00,,,0.00,WUHU216HW,2013-07-09 00:27:00,
2013-07-08 19:32:00,88.0,69.3,29.95,NNW,338,0.7,2.0,54,0.00,,,0.00,WUHU216HW,2013-07-09 00:32:00,
2013-07-08 19:37:00,87.7,69.5,29.95,NW,315,1.1,2.0,55,0.00,,,0.00,WUHU216HW,2013-07-09 00:37:00,
2013-07-08 19:43:00,87.3,69.1,29.95,SSE,158,0.9,1.8,55,0.00,,,0.00,WUHU216HW,2013-07-09 00:43:00,
2013-07-08 19:49:00,86.9,68.8,29.95,SE,135,0.4,1.8,55,0.00,,,0.00,WUHU216HW,2013-07-09 00:49:00,
2013-07-08 19:54:00,86.4,68.3,29.95,SE,135,0.4,0.4,55,0.00,,,0.00,WUHU216HW,2013-07-09 00:54:00,
2013-07-08 19:59:00,85.9,68.3,29.95,ESE,113,0.0,0.4,56,0.00,,,0.00,WUHU216HW,2013-07-09 00:59:00,
2013-07-08 20:05:00,85.3,67.9,29.95,ENE,68,0.0,1.1,56,0.00,,,0.00,WUHU216HW,2013-07-09 01:05:00,
2013-07-08 20:10:00,85.0,68.1,29.95,SSE,158,0.2,1.1,57,0.00,,,0.00,WUHU216HW,2013-07-09 01:10:00,
2013-07-08 20:16:00,84.4,68.6,29.95,ESE,113,0.2,0.7,59,0.00,,,0.00,WUHU216HW,2013-07-09 01:16:00,
2013-07-08 20:21:00,84.1,68.8,29.95,ENE,68,0.0,1.1,60,0.00,,,0.00,WUHU216HW,2013-07-09 01:21:00,
2013-07-08 20:26:00,83.7,68.9,29.95,ENE,68,0.0,1.1,61,0.00,,,0.00,WUHU216HW,2013-07-09 01:26:00,
2013-07-08 20:31:00,83.3,68.9,29.95,ENE,68,0.2,0.7,62,0.00,,,0.00,WUHU216HW,2013-07-09 01:31:00,
2013-07-08 20:36:00,82.8,68.4,29.95,ENE,68,0.0,0.4,62,0.00,,,0.00,WUHU216HW,2013-07-09 01:36:00,
2013-07-08 20:41:00,82.3,68.3,29.95,NE,45,0.0,0.4,63,0.00,,,0.00,WUHU216HW,2013-07-09 01:41:00,
2013-07-08 20:47:00,81.9,68.5,29.94,East,90,0.2,0.7,64,0.00,,,0.00,WUHU216HW,2013-07-09 01:47:00,
2013-07-08 20:52:00,81.4,68.0,29.94,ENE,68,0.4,0.7,64,0.00,,,0.00,WUHU216HW,2013-07-09 01:52:00,
2013-07-08 20:57:00,81.0,68.1,29.94,ENE,68,0.0,0.4,65,0.00,,,0.00,WUHU216HW,2013-07-09 01:57:00,
2013-07-08 21:02:00,80.5,68.0,29.95,ENE,68,0.0,0.4,66,0.00,,,0.00,WUHU216HW,2013-07-09 02:02:00,
2013-07-08 21:07:00,79.9,67.5,29.95,ENE,68,0.0,0.4,66,0.00,,,0.00,WUHU216HW,2013-07-09 02:07:00,
2013-07-08 21:13:00,79.6,67.6,29.95,ENE,68,0.0,0.4,67,0.00,,,0.00,WUHU216HW,2013-07-09 02:13:00,
2013-07-08 21:18:00,79.2,67.7,29.94,ENE,68,0.0,0.0,68,0.00,,,0.00,WUHU216HW,2013-07-09 02:18:00,
2013-07-08 21:24:00,78.8,67.3,29.94,NNW,338,0.0,0.2,68,0.00,,,0.00,WUHU216HW,2013-07-09 02:24:00,
2013-07-08 21:30:00,78.5,67.5,29.95,North,0,0.0,0.2,69,0.00,,,0.00,WUHU216HW,2013-07-09 02:30:00,
2013-07-08 21:35:00,78.3,67.3,29.95,North,0,0.0,0.2,69,0.00,,,0.00,WUHU216HW,2013-07-09 02:35:00,
2013-07-08 21:40:00,78.1,67.6,29.95,North,0,0.0,0.0,70,0.00,,,0.00,WUHU216HW,2013-07-09 02:40:00,
2013-07-08 21:46:00,78.1,67.6,29.95,North,0,0.0,0.0,70,0.00,,,0.00,WUHU216HW,2013-07-09 02:46:00,
2013-07-08 21:51:00,78.1,67.6,29.95,North,0,0.0,0.0,70,0.00,,,0.00,WUHU216HW,2013-07-09 02:51:00,
2013-07-08 21:57:00,78.1,67.6,29.95,North,0,0.0,0.0,70,0.00,,,0.00,WUHU216HW,2013-07-09 02:57:00,
2013-07-08 22:03:00,78.1,67.6,29.95,North,0,0.0,0.0,70,0.00,,,0.00,WUHU216HW,2013-07-09 03:03:00,
2013-07-08 22:08:00,77.9,67.4,29.96,NNE,23,0.0,0.4,70,0.00,,,0.00,WUHU216HW,2013-07-09 03:08:00,
2013-07-08 22:13:00,77.8,67.6,29.96,NNE,23,0.0,0.4,71,0.00,,,0.00,WUHU216HW,2013-07-09 03:13:00,
2013-07-08 22:18:00,77.6,67.5,29.96,NNE,23,0.0,0.0,71,0.00,,,0.00,WUHU216HW,2013-07-09 03:18:00,
2013-07-08 22:23:00,77.4,67.7,29.96,NNE,23,0.0,0.0,72,0.00,,,0.00,WUHU216HW,2013-07-09 03:23:00,
2013-07-08 22:28:00,77.2,67.5,29.96,NNE,23,0.0,0.0,72,0.00,,,0.00,WUHU216HW,2013-07-09 03:28:00,
2013-07-08 22:34:00,77.0,67.3,29.96,NNE,23,0.0,0.4,72,0.00,,,0.00,WUHU216HW,2013-07-09 03:34:00,
2013-07-08 22:39:00,76.9,67.6,29.97,NNE,23,0.0,0.4,73,0.00,,,0.00,WUHU216HW,2013-07-09 03:39:00,
2013-07-08 22:44:00,76.7,67.4,29.97,NNE,23,0.0,0.0,73,0.00,,,0.00,WUHU216HW,2013-07-09 03:44:00,
2013-07-08 22:49:00,76.7,67.8,29.97,NNE,23,0.0,0.0,74,0.00,,,0.00,WUHU216HW,2013-07-09 03:49:00,
2013-07-08 22:54:00,76.7,67.8,29.96,NNE,23,0.0,0.0,74,0.00,,,0.00,WUHU216HW,2013-07-09 03:54:00,
2013-07-08 22:59:00,76.7,67.8,29.97,East,90,0.0,0.4,74,0.00,,,0.00,WUHU216HW,2013-07-09 03:59:00,
2013-07-08 23:01:00,76.7,67.8,29.97,ENE,68,0.0,0.4,74,0.00,,,0.00,WUHU216HW,2013-07-09 04:01:00,
2013-07-08 23:02:00,76.7,67.8,29.97,NE,45,0.0,0.4,74,0.00,,,0.00,WUHU216HW,2013-07-09 04:02:00,
2013-07-08 23:07:00,76.7,68.1,29.97,NE,45,0.0,0.4,75,0.00,,,0.00,WUHU216HW,2013-07-09 04:07:00,
2013-07-08 23:12:00,76.5,68.0,29.97,NE,45,0.0,0.0,75,0.00,,,0.00,WUHU216HW,2013-07-09 04:12:00,
2013-07-08 23:17:00,76.3,67.8,29.96,ENE,68,0.0,0.2,75,0.00,,,0.00,WUHU216HW,2013-07-09 04:17:00,
2013-07-08 23:22:00,76.5,68.0,29.96,ENE,68,0.0,0.4,75,0.00,,,0.00,WUHU216HW,2013-07-09 04:22:00,
2013-07-08 23:27:00,76.5,68.0,29.96,ENE,68,0.4,0.4,75,0.00,,,0.00,WUHU216HW,2013-07-09 04:27:00,
2013-07-08 23:32:00,76.7,68.1,29.96,ENE,68,0.0,0.4,75,0.00,,,0.00,WUHU216HW,2013-07-09 04:32:00,
2013-07-08 23:37:00,76.5,68.0,29.96,ENE,68,0.0,0.4,75,0.00,,,0.00,WUHU216HW,2013-07-09 04:37:00,
2013-07-08 23:42:00,76.3,67.8,29.96,ENE,68,0.9,1.1,75,0.00,,,0.00,WUHU216HW,2013-07-09 04:42:00,
2013-07-08 23:47:00,76.3,67.8,29.96,NE,45,0.0,1.1,75,0.00,,,0.00,WUHU216HW,2013-07-09 04:47:00,
2013-07-08 23:52:00,76.3,67.8,29.96,ENE,68,0.0,1.1,75,0.00,,,0.00,WUHU216HW,2013-07-09 04:52:00,
2013-07-08 23:57:00,76.1,67.7,29.95,ESE,113,0.0,0.4,75,0.00,,,0.00,WUHU216HW,2013-07-09 04:57:00,